Regional Weather Roundup
Issued by NWS Green Bay, WI

Home | Current Version | Previous Version | Graphics & Text | Print | Product List | Glossary Off
Versions: 1 2 3 4 5 6 7 8 9 10 11 12 13 14 15 16 17 18 19 20 21 22 23 24 25 26 27 28 29 30 31 32 33 34 35 36 37 38 39 40 41 42 43 44 45 46 47 48 49 50

985
ASUS43 KGRB 242300
RWRGRB

NORTH-CENTRAL AND NORTHEAST WISCONSIN REGIONAL WEATHER ROUNDUP
NATIONAL WEATHER SERVICE GREEN BAY WI
600 PM CDT WED AUG 24 2016

WIZ005-009-010>012-018-019-250000-
NORTH CENTRAL WISCONSIN

CITY           SKY/WX    TMP DP  RH WIND       PRES   REMARKS
IRONWOOD       MOSUNNY   75  66  73 SW10      29.86R
MANITOWISH WTR NOT AVBL
ARBOR VITAE    NOT AVBL
EAGLE RIVER    NOT AVBL
LAND O LAKES   NOT AVBL
RHINELANDER    CLOUDY    74  66  76 W13       29.91R
PHILLIPS       CLOUDY    74  66  75 SW8       29.91S
ANTIGO         NOT AVBL
TOMAHAWK       NOT AVBL
MERRILL        MOSUNNY   76  67  73 W10       29.92S
$$

WIZ013-073-250000-
NORTHEAST WISCONSIN

CITY           SKY/WX    TMP DP  RH WIND       PRES   REMARKS
IRON MOUNTAIN  CLOUDY    75  66  73 W7        29.85R
MARINETTE      PTSUNNY  N/A N/A N/A SW6         N/A
$$

WIZ017-030-035>037-045-250000-
CENTRAL WISCONSIN

CITY           SKY/WX    TMP DP  RH WIND       PRES   REMARKS
MEDFORD        NOT AVBL
WAUSAU         PTSUNNY   76  65  68 W13       29.90R
MOSINEE        PTSUNNY   75  68  78 W12       29.93R
MARSHFIELD     MOSUNNY   76  65  68 W9        29.93R
WISC RAPIDS    MOSUNNY   79  68  69 NW10      29.93R
STEVENS POINT  NOT AVBL
WAUPACA        NOT AVBL
SHAWANO        NOT AVBL
CLINTONVILLE   MOSUNNY   79  64  61 W7        29.88F
WAUTOMA        MOSUNNY   79  71  76 W13       29.91S
$$

WIZ038-039-048-051-250000-
FOX VALLEY

CITY           SKY/WX    TMP DP  RH WIND       PRES   REMARKS
NWS GREEN BAY  SUNNY     79  72  79 W13       29.87S
APPLETON       PTSUNNY   79  66  65 W12       29.89R
OSHKOSH        PTSUNNY   79  71  76 W8        29.89S
FOND DU LAC    CLOUDY    79  71  76 W10       29.90S
$$

WIZ022-050-052-250000-
EAST CENTRAL WISCONSIN

CITY           SKY/WX    TMP DP  RH WIND       PRES   REMARKS
EPHRAIM        NOT AVBL
WASHINGTON ISL NOT AVBL
STURGEON BAY   MOSUNNY   78  70  76 W12G17    29.87F
MANITOWOC      CLOUDY    81  72  74 MISG      29.89R
SHEBOYGAN      PTSUNNY   81  71  71 W8        29.89
$$

LMZ563-521-522-541>543-250000-
LAKESHORE

STATION/POSITION TIME  TEMP    WIND        PRES    VSBY  WAVE
                       AIR SEA DIR/SP/G                  HT/PER
                 (UTC) (F)     (DEG/KT/KT) (MB)    (MI)  (FT/S)
SHEBOYGAN LKSHOR 2200   82     240/ 10/ 12 1011.0R
KEWAUNEE LKSHORE 2200          270/  6/ 10 1010.9R
NORTHPORT PIER   2200   78     240/  7/ 12 1010.5S
N MID LAKE BUOY  2150   71 70  220/ 16/ 19 1009.8R         7/ 7
S GREEN BAY BUOY 2200   75 73  260/  6/  8 1010.7
SISTER BAY LKSHO 2207   76     240/ 14/ 19   N/A
CHAMBERS ISLAND  2200   74     200/  6/ 11 1010.5S
MENOMINEE LKSHOR 2200   76     220/  8/ 11 1010.0R
$$




USA.gov is the U.S. government's official web portal to all federal, state and local government web resources and services.